TimeIST,TemperatureF,Dew PointF,Humidity,Sea Level PressureIn,VisibilityMPH,Wind Direction,Wind SpeedMPH,Gust SpeedMPH,PrecipitationIn,Events,Conditions,WindDirDegrees,DateUTC
12:50 AM,66.2,57.2,73,29.98,-9999.0,ENE,2.3,-,N/A,,Clear,60,2012-10-27 22:50:00
1:50 AM,66.2,57.2,73,29.98,-9999.0,NNE,2.3,-,N/A,,Clear,20,2012-10-27 23:50:00
2:00 AM,66,57,66,29.99,6,NNE,2.3,,,,,20,2012-10-28 00:00:00
2:50 AM,66.2,57.2,73,29.98,-9999.0,Calm,Calm,-,N/A,,Clear,0,2012-10-28 00:50:00
3:50 AM,62.6,55.4,77,29.98,-9999.0,East,2.3,-,N/A,,Clear,100,2012-10-28 01:50:00
4:50 AM,62.6,55.4,77,30.01,-9999.0,East,1.2,-,N/A,,Clear,90,2012-10-28 02:50:00
5:50 AM,62.6,53.6,72,30.01,-9999.0,NE,2.3,-,N/A,,Clear,40,2012-10-28 03:50:00
6:50 AM,66.2,53.6,64,30.04,-9999.0,Variable,2.3,-,N/A,,Clear,0,2012-10-28 04:50:00
7:50 AM,69.8,53.6,56,30.04,-9999.0,Calm,Calm,-,N/A,,Clear,0,2012-10-28 05:50:00
8:00 AM,69,54,49,30.05,6,Calm,Calm,,,,,,2012-10-28 06:00:00
8:50 AM,75.2,53.6,47,30.04,6.2,NNW,3.5,-,N/A,,Partly Cloudy,330,2012-10-28 06:50:00
9:50 AM,78.8,53.6,42,30.04,6.2,North,6.9,-,N/A,,Partly Cloudy,350,2012-10-28 07:50:00
10:50 AM,82.4,51.8,35,30.04,6.2,NNE,3.5,-,N/A,,Partly Cloudy,20,2012-10-28 08:50:00
11:50 AM,84.2,44.6,25,30.01,-9999.0,NW,8.1,-,N/A,,Clear,320,2012-10-28 09:50:00
12:50 PM,82.4,55.4,39,29.98,-9999.0,NW,11.5,-,N/A,,Clear,320,2012-10-28 10:50:00
1:50 PM,82.4,55.4,39,29.98,6.2,NNW,11.5,-,N/A,,Partly Cloudy,330,2012-10-28 11:50:00
2:00 PM,82,56,30,29.98,6,NNW,11.5,,,,Scattered Clouds,330,2012-10-28 12:00:00
2:50 PM,80.6,57.2,45,29.98,-9999.0,NNW,12.7,-,N/A,,Clear,330,2012-10-28 12:50:00
3:50 PM,80.6,57.2,45,29.98,-9999.0,NW,12.7,-,N/A,,Clear,320,2012-10-28 13:50:00
4:50 PM,77.0,59.0,54,29.98,-9999.0,NNW,8.1,-,N/A,,Clear,340,2012-10-28 14:50:00
5:50 PM,75.2,60.8,61,30.01,-9999.0,North,4.6,-,N/A,,Clear,360,2012-10-28 15:50:00
6:50 PM,75.2,60.8,61,30.01,-9999.0,NNE,5.8,-,N/A,,Clear,15,2012-10-28 16:50:00
6:53 PM,75.2,60.8,61,30.01,-9999.0,NNE,5.8,-,N/A,,Clear,20,2012-10-28 16:53:00
7:50 PM,73.4,60.8,65,30.01,-9999.0,Variable,1.2,-,N/A,,Clear,0,2012-10-28 17:50:00
8:00 PM,73,60,55,30.02,6,,1.2,,,,,,2012-10-28 18:00:00
8:50 PM,71.6,59.0,64,30.01,-9999.0,Variable,1.2,-,N/A,,Clear,0,2012-10-28 18:50:00
9:50 PM,69.8,57.2,64,30.01,-9999.0,ENE,4.6,-,N/A,,Clear,70,2012-10-28 19:50:00
10:50 PM,66.2,55.4,68,30.01,-9999.0,Variable,2.3,-,N/A,,Clear,0,2012-10-28 20:50:00
11:50 PM,66.2,55.4,68,30.01,-9999.0,Variable,1.2,-,N/A,,Clear,0,2012-10-28 21:50:00